Change the Weather History Date:

Saturday, March 23, 2013

  Actual Average Record
Temperature  
Mean Temperature 45 °F 56 °F  
Max Temperature 56 °F 68 °F 86 °F (1948)
Min Temperature 34 °F 44 °F 24 °F (1986)
Degree Days  
Heating Degree Days 20 9  
Month to date heating degree days 375 280  
Since 1 July heating degree days 2471 2505  
Cooling Degree Days 0 0  
Month to date cooling degree days 3 0  
Year to date cooling degree days 8 4  
Moisture  
Dew Point 30 °F    
Average Humidity 59    
Maximum Humidity 79    
Minimum Humidity 38    
Precipitation  
Precipitation T in 0.11 in 0.60 in (1929)
Month to date precipitation 0.75 2.50  
Year to date precipitation 6.39 8.56  
Sea Level Pressure  
Sea Level Pressure 29.98 in    
Wind  
Wind Speed 2 mph (NW)    
Max Wind Speed 7 mph    
Max Gust Speed 8 mph    
Visibility 10 miles    
Events Rain    
T = Trace of Precipitation, MM = Missing Value Source: NWS Daily Summary

Daily Weather History Graph

Daily Weather History Graph

Search for Another Location

Airport or City:

Trip Planner

Search our weather history database for the weather conditions in past years. The results will help you decide how hot, cold, wet, or windy it might be!

Date:

Astronomy

Mar. 23, 2013 Rise Set
Actual Time 7:14 AM EDT 7:29 PM EDT
Civil Twilight 6:49 AM EDT 7:55 PM EDT
Nautical Twilight 6:19 AM EDT 8:24 PM EDT
Astronomical Twilight 5:49 AM EDT 8:54 PM EDT
Moon 4:01 PM EDT (3/23) 4:42 AM EDT (3/23)
Length of Visible Light 13h 05m
Length of Day
12h 15m
Waxing Gibbous, 85% of the Moon is Illuminated
Mar 23
Waxing Gibbous
Mar 27
Full
Apr 3
Last Quarter
Apr 10
New
Apr 18
First Quarter

Hourly Weather History & Observations

Time (EDT) Temp. Windchill Dew Point Humidity Pressure Visibility Wind Dir Wind Speed Gust Speed Precip Events Conditions
12:53 AM 43.0 °F 41.3 °F 25.0 °F 49% 30.02 in 10.0 mi SSW 3.5 mph - N/A   Overcast
1:53 AM 44.1 °F 42.5 °F 26.1 °F 49% 30.02 in 10.0 mi SW 3.5 mph - N/A   Overcast
2:53 AM 44.1 °F - 26.1 °F 49% 30.01 in 10.0 mi Calm Calm - N/A   Overcast
3:53 AM 43.0 °F 39.5 °F 27.0 °F 53% 29.99 in 10.0 mi SW 5.8 mph - N/A   Overcast
4:53 AM 39.9 °F 36.7 °F 27.0 °F 60% 29.99 in 10.0 mi WSW 4.6 mph - N/A   Clear
5:53 AM 37.9 °F - 27.0 °F 65% 29.99 in 10.0 mi Calm Calm - N/A   Mostly Cloudy
6:53 AM 35.1 °F 30.1 °F 28.0 °F 76% 30.01 in 10.0 mi SSW 5.8 mph - N/A   Clear
7:53 AM 39.0 °F - 30.0 °F 70% 30.01 in 10.0 mi Calm Calm - N/A   Partly Cloudy
8:53 AM 42.1 °F 40.2 °F 28.0 °F 58% 30.03 in 10.0 mi West 3.5 mph - N/A   Overcast
9:53 AM 44.1 °F 41.5 °F 30.0 °F 58% 30.04 in 9.0 mi WNW 4.6 mph - 0.00 in Rain Light Rain
10:53 AM 46.0 °F 44.8 °F 30.9 °F 56% 30.04 in 10.0 mi NW 3.5 mph - 0.00 in   Overcast
11:53 AM 46.9 °F - 32.0 °F 56% 30.05 in 10.0 mi Calm Calm - 0.00 in   Overcast
12:53 PM 48.0 °F - 30.0 °F 50% 30.03 in 10.0 mi Calm Calm - N/A   Overcast
1:53 PM 48.9 °F - 30.0 °F 48% 29.99 in 10.0 mi NNE 3.5 mph - N/A   Overcast
2:53 PM 50.0 °F - 30.9 °F 48% 29.98 in 10.0 mi Calm Calm - N/A   Overcast
3:53 PM 51.1 °F - 30.9 °F 46% 29.95 in 10.0 mi Calm Calm - N/A   Overcast
4:53 PM 54.0 °F - 30.0 °F 40% 29.93 in 10.0 mi NNE 5.8 mph - N/A   Overcast
5:53 PM 55.0 °F - 30.9 °F 40% 29.90 in 10.0 mi NNE 3.5 mph - N/A   Scattered Clouds
6:53 PM 53.1 °F - 32.0 °F 45% 29.90 in 10.0 mi NNE 4.6 mph - N/A   Overcast
7:53 PM 52.0 °F - 32.0 °F 47% 29.94 in 10.0 mi Calm Calm - N/A   Overcast
8:53 PM 46.9 °F - 34.0 °F 61% 29.97 in 10.0 mi Calm Calm - N/A   Clear
9:53 PM 45.0 °F - 35.1 °F 68% 29.97 in 10.0 mi Calm Calm - N/A   Clear
10:53 PM 42.1 °F 40.2 °F 34.0 °F 73% 29.94 in 10.0 mi North 3.5 mph - N/A   Clear
11:53 PM 39.0 °F 36.8 °F 33.1 °F 79% 29.92 in 10.0 mi North 3.5 mph - N/A   Clear